Regional Weather Roundup
Issued by NWS Northern Indiana

Home | Current Version | Previous Version | Graphics & Text | Print | Product List | Glossary On
Versions: 1 2 3 4 5 6 7 8 9 10 11 12 13 14 15 16 17 18 19 20 21 22 23 24 25 26 27 28 29 30 31 32 33 34 35 36 37 38 39 40 41 42 43 44 45 46 47 48 49 50
000
ASUS43 KIWX 221700
RWRIWX

KIWX WEATHER ROUNDUP
NATIONAL WEATHER SERVICE NORTHERN INDIANA
100 PM EDT SUN OCT 22 2017

NOTE: "FAIR" INDICATES FEW OR NO CLOUDS BELOW 12,000 FEET WITH NO
SIGNIFICANT WEATHER AND/OR OBSTRUCTIONS TO VISIBILITY.

* THESE STATIONS ARE NOT UNDER NWS QUALITY CONTROL. THEY ALSO MAY NOT
  REPORT WEATHER SUCH AS PRECIPITATION OR FOG.

INZ001>027-221800-
NORTHERN INDIANA

CITY           SKY/WX    TMP DP  RH WIND       PRES   REMARKS
SOUTH BEND     PTSUNNY   70  58  65 S21G30    30.04S
GOSHEN         PTSUNNY   74  56  53 S21       30.05F
MONTICELLO*    CLOUDY    70  57  61 S10G20    30.02F
FORT WAYNE     MOSUNNY   75  54  47 S22G30    30.10F
PERU/GRISSOM   PTSUNNY   72  57  58 S20G26    30.06F

$$
INZ028>050-221800-
CENTRAL INDIANA

CITY           SKY/WX    TMP DP  RH WIND       PRES   REMARKS
LAFAYETTE      CLOUDY    70  58  65 S16G23    30.02F
KOKOMO*        PTSUNNY   72  57  59 S23G29    30.09F
MUNCIE*        MOSUNNY   76  54  46 SW15G26   30.11F
INDIANAPOLIS   PTSUNNY   75  58  55 S17G24    30.07F

$$
MIZ043>046-050>051-056>058-064>065-071>073-077>080-221800-
SOUTHWEST LOWER MICHIGAN

CITY           SKY/WX    TMP DP  RH WIND       PRES   REMARKS
BATTLE CREEK   MOSUNNY   72  58  61 S18       30.06F
BENTON HARBOR  CLOUDY    71  57  61 S14       30.00F
COLDWATER*     PTSUNNY   74  55  51 S9G25     30.08S
HILLSDALE*     MOSUNNY   72  54  53 S13G20    30.10F
HOLLAND        PTSUNNY   74  59  59 S16       29.99F
GRAND RAPIDS   PTSUNNY   75  59  57 S13G22    30.01F
KALAMAZOO      MOSUNNY   72  56  57 S15G23    30.04F
STURGIS*       PTSUNNY   72  58  60 S17       30.06F
THREE RIVERS*  FAIR      74  58  57 S17G28    30.05F

$$
OHZ001>008-015>018-024>025-221800-
NORTHWEST OHIO

CITY           SKY/WX    TMP DP  RH WIND       PRES   REMARKS
DEFIANCE       SUNNY     74  53  48 S14G24    30.11F
FINDLAY        SUNNY     77  53  43 S20       30.15F
TOLEDO EXPRESS SUNNY     75  57  53 S12G23    30.12F
TOLEDO METCALF SUNNY     75  55  49 S16       30.15F
LIMA           SUNNY     74  54  49 S18G24    30.16F

$$
AND FOR LAKE MICHIGAN COASTAL AND OPEN LAKE BUOY OBSERVATIONS

STATION/POSITION TEMP    WIND        PRES    VSBY  WAVE
                 AIR SEA DIR/SP/G                  HT/PER
                 (F)     (DEG/KT/KT) (MB)    (MI)  (FT/S)
CALUMET HARBOR    70     160/ 15/ 22 1013.8F
MICHIGAN CITY     69     170/ 17/ 21   N/A
BURNS HARBOR      70     180/ 15/ 23 1015.6F
SAINT JOSEPH      70     190/  6/ 14 1015.9
SOUTH LAKE BUOY   63 61  170/ 17/ 21 1014.5          4/ 5
4 MI NW BRIDGMAN  66 59  190/ 16/ 21 1015.9F         3/ 4
MICHIGAN CITY     66 58  190/ 16/ 19   N/A           2/ 3

$$
&&



USA.gov is the U.S. government's official web portal to all federal, state and local government web resources and services.